Malaga, Spain

9:52 AM CEST on September 30, 2016 (GMT +0200)
Malaga

Weather History for LEMG - November, 2011

Change the Weather History Date:

Saturday, November 12, 2011

  Actual Average Record
Temperature  
Mean Temperature 62 °F -  
Max Temperature 72 °F 65 °F 78 °F (1998)
Min Temperature 53 °F 50 °F 42 °F (1999)
Degree Days  
Heating Degree Days 2    
Growing Degree Days 12 (Base 50)    
Moisture  
Dew Point 50 °F    
Average Humidity 68    
Maximum Humidity 82    
Minimum Humidity 34    
Precipitation  
Precipitation 0.00 in - - ()
Sea Level Pressure  
Sea Level Pressure 30.07 in    
Wind  
Wind Speed 5 mph ()    
Max Wind Speed 10 mph    
Max Gust Speed -    
Visibility 8.3 miles    
Events      
Averages and records for this station are not official NWS values.
T = Trace of Precipitation, MM = Missing Value Source: Averaged Metar Reports

Daily Weather History Graph

Daily Weather History Graph

Search for Another Location

Airport or City:

Trip Planner

Search our weather history database for the weather conditions in past years. The results will help you decide how hot, cold, wet, or windy it might be!

Date:

Astronomy

Nov. 12, 2011 Rise Set
Actual Time 7:52 AM CET 6:11 PM CET
Civil Twilight 7:24 AM CET 6:38 PM CET
Nautical Twilight 6:53 AM CET 7:09 PM CET
Astronomical Twilight 6:23 AM CET 7:40 PM CET
Moon 7:18 PM CET (11/12) 9:19 AM CET (11/12)
Length of Visible Light 11h 13m
Length of Day
10h 19m
Full, 98% of the Moon is Illuminated
Nov 12
Full
Nov 18
Last Quarter
Nov 25
New
Dec 2
First Quarter
Dec 10
Full

Hourly Weather History & Observations

Time (CET) Temp. Dew Point Humidity Pressure Visibility Wind Dir Wind Speed Gust Speed Precip Events Conditions
12:00 AM 53.6 °F 48.2 °F 82% 30.09 in - WNW 3.5 mph - N/A   Clear
12:30 AM 55.4 °F 48.2 °F 77% 30.09 in - WNW 4.6 mph - N/A   Clear
1:00 AM 56 °F 49 °F 69% 30.11 in 12 mi WNW 4.6 mph - -   Partly Cloudy
1:00 AM 53.6 °F 48.2 °F 82% 30.09 in - WNW 4.6 mph - N/A   Clear
1:30 AM 53.6 °F 48.2 °F 82% 30.09 in 6.2 mi WNW 9.2 mph - N/A   Partly Cloudy
2:00 AM 55.4 °F 50.0 °F 82% 30.09 in - WNW 9.2 mph - N/A   Clear
2:30 AM 55.4 °F 50.0 °F 82% 30.09 in - WNW 10.4 mph - N/A   Clear
3:00 AM 57.2 °F 48.2 °F 72% 30.09 in - WNW 6.9 mph - N/A   Clear
3:30 AM 53.6 °F 48.2 °F 82% 30.09 in - WNW 5.8 mph - N/A   Clear
4:00 AM 53.6 °F 48.2 °F 82% 30.09 in - WNW 8.1 mph - N/A   Clear
4:30 AM 53.6 °F 48.2 °F 82% 30.06 in - WNW 8.1 mph - N/A   Clear
5:00 AM 55.4 °F 50.0 °F 82% 30.06 in - WNW 10.4 mph - N/A   Clear
5:30 AM 53.6 °F 48.2 °F 82% 30.06 in - NW 5.8 mph - N/A   Clear
6:00 AM 53.6 °F 48.2 °F 82% 30.06 in - WNW 8.1 mph - N/A   Clear
6:30 AM 53.6 °F 48.2 °F 82% 30.06 in - WNW 9.2 mph - N/A   Clear
7:00 AM 55 °F 48 °F 71% 30.09 in 12 mi WNW 9.2 mph - -   Partly Cloudy
7:00 AM 53.6 °F 48.2 °F 82% 30.06 in - WNW 9.2 mph - N/A   Clear
7:30 AM 53.6 °F 48.2 °F 82% 30.09 in - WNW 9.2 mph - N/A   Clear
8:00 AM 53.6 °F 48.2 °F 82% 30.09 in - WNW 10.4 mph - N/A   Clear
8:30 AM 55.4 °F 50.0 °F 82% 30.09 in - West 9.2 mph - N/A   Clear
9:00 AM 57.2 °F 48.2 °F 72% 30.09 in 6.2 mi WNW 9.2 mph - N/A   Partly Cloudy
9:30 AM 57.2 °F 50.0 °F 77% 30.09 in 6.2 mi West 8.1 mph - N/A   Partly Cloudy
10:00 AM 59.0 °F 50.0 °F 72% 30.09 in 6.2 mi WNW 4.6 mph - N/A   Partly Cloudy
10:30 AM 62.6 °F 51.8 °F 68% 30.09 in 6.2 mi WNW 3.5 mph - N/A   Partly Cloudy
11:00 AM 66.2 °F 51.8 °F 60% 30.09 in 6.2 mi WNW 4.6 mph - N/A   Partly Cloudy
11:30 AM 68.0 °F 51.8 °F 56% 30.09 in 6.2 mi WNW 5.8 mph - N/A   Partly Cloudy
12:00 PM 69.8 °F 51.8 °F 53% 30.09 in 6.2 mi Variable 2.3 mph - N/A   Partly Cloudy
12:30 PM 69.8 °F 48.2 °F 46% 30.06 in 6.2 mi ENE 1.2 mph - N/A   Partly Cloudy
1:00 PM 72 °F 50 °F 34% 30.10 in 19 mi ESE 3.5 mph - -   Scattered Clouds
1:00 PM 71.6 °F 48.2 °F 43% 30.06 in 6.2 mi ESE 3.5 mph - N/A   Partly Cloudy
1:30 PM 71.6 °F 48.2 °F 43% 30.06 in 6.2 mi SE 5.8 mph - N/A   Partly Cloudy
2:00 PM 71.6 °F 50.0 °F 46% 30.06 in 6.2 mi ESE 8.1 mph - N/A   Partly Cloudy
2:30 PM 69.8 °F 50.0 °F 49% 30.04 in 6.2 mi SE 6.9 mph - N/A   Partly Cloudy
3:00 PM 69.8 °F 50.0 °F 49% 30.04 in 6.2 mi SE 3.5 mph - N/A   Partly Cloudy
3:30 PM 69.8 °F 50.0 °F 49% 30.04 in - Variable 2.3 mph - N/A   Clear
4:00 PM 69.8 °F 50.0 °F 49% 30.04 in - SE 3.5 mph - N/A   Clear
4:30 PM 68.0 °F 50.0 °F 52% 30.06 in - SE 5.8 mph - N/A   Clear
5:00 PM 69.8 °F 50.0 °F 49% 30.06 in - Variable 1.2 mph - N/A   Clear
5:30 PM 69.8 °F 50.0 °F 49% 30.06 in - Calm Calm - N/A   Clear
6:00 PM 68.0 °F 50.0 °F 52% 30.06 in - Calm Calm - N/A   Clear
6:30 PM 66.2 °F 51.8 °F 60% 30.06 in - Calm Calm - N/A   Clear
7:00 PM 65 °F 54 °F 60% 30.07 in 19 mi 2.3 mph - -   Clear
7:00 PM 66.2 °F 53.6 °F 64% 30.06 in - Variable 2.3 mph - N/A   Clear
7:30 PM 66.2 °F 53.6 °F 64% 30.06 in - SSE 3.5 mph - N/A   Clear
8:00 PM 66.2 °F 55.4 °F 68% 30.06 in - SSE 3.5 mph - N/A   Clear
8:30 PM 64.4 °F 55.4 °F 73% 30.06 in - SSE 1.2 mph - N/A   Clear
9:00 PM 62.6 °F 55.4 °F 77% 30.06 in - Calm Calm - N/A   Clear
9:30 PM 60.8 °F 53.6 °F 77% 30.09 in - Variable 1.2 mph - N/A   Clear
10:00 PM 62.6 °F 55.4 °F 77% 30.09 in - West 3.5 mph - N/A   Clear
10:30 PM 60.8 °F 55.4 °F 82% 30.09 in - West 5.8 mph - N/A   Clear
11:00 PM 59.0 °F 53.6 °F 82% 30.09 in - WNW 5.8 mph - N/A   Clear
11:30 PM 60.8 °F 53.6 °F 77% 30.09 in - West 9.2 mph - N/A   Clear